Location: *
(46.8990°S, 172.8596°W)
Time: 04:50:00
(UTC+00:00)

Daily predictions for brighter satellites

Satellite Brightness Start Highest point End
(mag) Time Altitude Azimuth Time Altitude Azimuth Time Altitude Azimuth
Cosmos 1844 3.7 04:17:24 10° SSW 04:23:04 80° ESE 04:28:39 10° NNE
Cosmos 2219 Rocket 2.9 04:19:12 10° N 04:24:22 37° ENE 04:29:36 10° SE
Iridium 4 Rocket 3.5 04:19:50 10° N 04:25:18 80° E 04:30:20 10° S
ALOS 2.4 04:20:51 10° SSE 04:25:35 61° E 04:30:14 10° N
H-2A R/B 2.9 04:21:54 10° SSE 04:25:57 43° E 04:29:48 10° N
STARLINK-1284 3.2 04:22:50 10° WNW 04:26:15 71° SSW 04:29:42 10° ESE
Starlink 7 placeholder 3.1 04:23:18 10° WSW 04:26:23 71° NNW 04:29:19 10° NE
STARLINK-1300 4.4 04:22:26 10° NNW 04:26:24 42° NE 04:30:23 10° ESE
STARLINK-66 3.5 04:23:41 10° W 04:26:53 50° SSW 04:30:07 10° SE
Shenzhou-11 Module 3.9 04:26:15 10° NNW 04:28:02 17° NNE 04:29:48 10° ENE
STARLINK-1258 3.3 04:24:44 10° WNW 04:28:10 69° SSW 04:31:38 10° ESE
STARLINK-1292 3.3 04:26:43 10° WNW 04:30:08 68° SSW 04:33:36 10° ESE
CZ-4B R/B 3.9 04:26:11 10° SSE 04:30:17 85° WSW 04:34:09 10° NNW
Meteor 2-6 Rocket 4.4 04:25:27 10° S 04:30:46 47° ESE 04:36:07 10° NNE
STARLINK-1295 4.3 04:27:23 10° NNW 04:31:23 45° NE 04:35:26 10° ESE
STARLINK-52 3.3 04:28:41 10° SW 04:31:54 47° SSE 04:35:05 10° E
STARLINK-1274 3.3 04:28:43 10° WNW 04:32:09 66° SSW 04:35:36 10° ESE
STARLINK-1338 4.2 04:29:28 10° WSW 04:32:51 33° S 04:36:13 10° ESE
CZ-4C R/B 4.2 04:27:08 10° WSW 04:32:57 24° SSW 04:38:05 10° SSE
STARLINK-1289 3.4 04:30:45 10° WNW 04:34:11 64° SSW 04:37:38 10° ESE
FALCON 9 DEB 3.7 04:32:21 10° SW 04:35:46 42° SSE 04:39:09 10° E
Cosmos 1782 2.8 04:31:59 10° S 04:36:04 77° E 04:40:05 10° NNE
STARLINK-1303 3.4 04:32:44 10° WNW 04:36:09 62° SSW 04:39:37 10° ESE
Cosmos 1500 Rocket 3.5 04:31:53 10° N 04:36:15 71° E 04:40:40 10° SSE
STARLINK-1287 4.2 04:32:16 10° NW 04:36:19 49° NE 04:40:24 10° ESE
STARLINK-75 3.6 04:34:50 10° W 04:38:00 47° SSW 04:41:07 10° SE
STARLINK-1312 3.4 04:34:43 10° WNW 04:38:09 60° SSW 04:41:32 10° ESE
STARLINK-1371 4.2 04:34:53 10° WSW 04:38:16 34° S 04:41:37 10° ESE
Cosmos 1862 4.2 04:35:13 10° NNE 04:38:47 31° E 04:42:26 10° SSE
Cosmos 2322 Rocket 3.5 04:35:33 10° WNW 04:40:52 39° SW 04:46:17 10° SSE
STARLINK-1341 4.2 04:37:33 10° WSW 04:40:58 34° S 04:44:13 11° ESE
SL-4 R/B 2.1 04:37:25 10° WSW 04:41:04 69° NNW 04:44:58 10° NE
STARLINK-1374 4.1 04:40:09 10° WSW 04:43:35 35° S 04:46:42 12° ESE
STARLINK-58 3.1 04:41:30 10° WNW 04:44:43 66° SSW 04:47:38 12° ESE
Envisat 4.5 04:42:19 10° SE 04:45:40 17° E 04:49:00 10° NE
STARLINK-1302 3.9 04:42:08 10° NW 04:46:15 57° NE 04:49:59 13° ESE
STARLINK-1339 4.1 04:42:50 10° WSW 04:46:18 35° SSE 04:49:19 13° ESE
Cosmos 1238 Rocket 4.5 04:43:36 10° NE 04:46:19 16° E 04:48:24 12° SE
Cosmos 1805 Rocket 3.9 04:42:26 10° NNE 04:46:36 44° E 04:50:53 10° SSE
STARLINK-22 3.6 04:44:25 10° W 04:47:37 48° SSW 04:50:24 13° SE
STARLINK-1377 4.1 04:45:12 10° WSW 04:48:37 35° SSE 04:51:30 13° ESE
Cosmos 2123 Rocket 4.0 04:44:03 10° S 04:50:21 80° E 04:56:38 10° NNE
STARLINK 1040 4.1 04:48:52 10° WSW 04:51:06 23° S 04:52:48 13° SE
STARLINK-1273 3.8 04:47:05 10° NW 04:51:14 62° NE 04:54:46 14° ESE
STARLINK-1353 4.1 04:47:52 10° SW 04:51:19 36° SSE 04:54:05 14° ESE
Meteor 1-27 Rocket 4.3 04:46:51 10° S 04:52:24 40° ESE 04:57:58 10° NE
STARLINK-1320 3.8 04:49:50 10° SW 04:52:49 34° SSE 04:54:59 15° ESE
STARLINK-1322 3.8 04:50:10 10° SW 04:53:08 34° SSE 04:55:18 16° ESE
STARLINK-80 3.9 04:49:29 10° W 04:53:15 51° SSW 04:56:25 14° SE
Cosmos 1812 3.3 04:49:49 10° S 04:53:29 36° ESE 04:57:05 10° NE
STARLINK-1324 3.8 04:50:31 10° SW 04:53:29 34° SSE 04:55:38 16° ESE
USA 234 3.5 04:47:11 10° SE 04:53:48 73° SSW 05:00:23 10° WNW
STARLINK-43 4.4 04:50:21 10° WSW 04:53:48 33° S 04:56:34 14° SE
STARLINK-1294 3.8 04:50:52 10° SW 04:53:50 34° SSE 04:55:55 16° ESE
STARLINK-1261 3.8 04:51:10 10° SW 04:54:09 34° SSE 04:56:16 16° ESE
Cosmos 1538 Rocket 4.4 04:49:09 10° NNW 04:54:21 67° WSW 04:59:36 10° SSE
STARLINK-1375 4.1 04:50:53 10° SW 04:54:22 37° SSE 04:57:02 15° ESE
STARLINK-1325 3.8 04:51:30 10° SW 04:54:29 34° SSE 04:56:35 16° ESE
STARLINK-1333 3.8 04:51:53 10° SW 04:54:53 34° SSE 04:56:57 16° ESE
COSMOS 2428 2.9 04:49:23 10° N 04:55:01 58° ENE 05:00:42 10° SE
STARLINK-1334 3.8 04:52:12 10° SW 04:55:11 34° SSE 04:57:16 16° ESE
STARLINK-1326 3.8 04:52:32 10° SW 04:55:32 34° SSE 04:57:35 17° ESE
Cosmos 1461 3.3 04:51:50 10° SSW 04:55:36 36° SE 04:59:14 10° ENE
STARLINK-1323 3.8 04:52:51 10° SW 04:55:51 34° SSE 04:57:54 17° ESE
STARLINK-1288 3.8 04:52:00 10° NW 04:56:10 66° NNE 04:59:32 15° ESE
STARLINK-1349 3.7 04:53:14 10° SW 04:56:14 35° SSE 04:58:15 17° ESE
STARLINK-1336 3.7 04:53:33 10° SW 04:56:32 35° SSE 04:58:33 17° ESE
STARLINK-1350 4.0 04:53:16 10° SW 04:56:45 37° SSE 04:59:16 16° ESE
STARLINK-1331 3.7 04:53:56 10° SW 04:56:55 35° SSE 04:58:55 17° ESE
STARLINK-1344 3.7 04:54:17 10° SW 04:57:16 35° SSE 04:59:15 17° ESE
STARLINK-1343 3.7 04:54:34 10° SW 04:57:33 35° SSE 04:59:31 17° ESE
STARLINK-1346 3.7 04:54:58 10° SW 04:57:56 35° SSE 04:59:51 18° ESE
ADEOS Rocket 3.9 04:50:26 10° N 04:58:03 75° WNW 05:05:58 10° SSW
STARLINK-1328 3.7 04:55:14 10° SW 04:58:14 35° SSE 05:00:11 18° ESE
STARLINK-1354 3.7 04:55:34 10° SW 04:58:34 35° SSE 05:00:29 18° ESE
STARLINK-1347 3.7 04:55:55 10° SW 04:58:56 35° SSE 05:00:50 18° ESE
STARLINK-1357 3.7 04:56:15 10° SW 04:59:16 35° SSE 05:01:10 18° ESE
STARLINK-1352 4.0 04:56:01 10° SW 04:59:30 38° SSE 05:01:54 17° ESE
STARLINK-1335 3.7 04:56:40 10° SW 04:59:40 36° SSE 05:01:32 18° ESE
STARLINK-1327 3.7 04:56:55 10° SW 04:59:56 36° SSE 05:01:48 19° ESE
STARLINK-1340 3.7 04:57:15 10° SW 05:00:16 36° SSE 05:02:08 19° ESE
STARLINK-1356 3.7 04:57:36 10° SW 05:00:37 36° SSE 05:02:27 19° ESE
ATLAS 5 CENTAUR R/B 3.7 04:54:55 10° NNE 05:00:40 27° ENE 05:04:51 15° ESE
STARLINK-1345 3.7 04:57:56 10° SW 05:00:57 36° SSE 05:02:47 19° ESE
STARLINK-1308 3.7 04:56:59 10° NW 05:01:11 72° NNE 05:04:21 17° ESE
STARLINK-1355 3.7 04:58:16 10° SW 05:01:17 36° SSE 05:03:06 19° ESE
STARLINK-1321 3.7 04:58:38 10° SW 05:01:39 36° SSE 05:03:27 19° ESE
Meteor 1-31 Rocket 4.3 04:58:05 10° S 05:01:50 37° WSW 05:05:30 10° NW
STARLINK-1358 3.7 04:58:57 10° SW 05:01:58 36° SSE 05:03:45 20° ESE
STARLINK-1283 4.1 04:58:22 10° W 05:02:06 45° SSW 05:04:52 17° SE
STARLINK-1368 4.0 04:58:46 10° SW 05:02:15 39° SSE 05:04:33 18° ESE
STARLINK-1332 3.7 04:59:21 10° SW 05:02:23 36° SSE 05:04:08 20° ESE
STARLINK-1348 3.7 04:59:39 10° SW 05:02:40 36° SSE 05:04:25 20° ESE
STARLINK-1330 3.7 04:59:58 10° SW 05:02:59 37° SSE 05:04:43 20° ESE
STARLINK-60 3.8 04:59:49 10° WSW 05:03:02 52° NW 05:06:12 10° NE
Cosmos 1624 Rocket 4.3 04:58:15 10° S 05:03:17 43° ESE 05:08:17 10° NE
STARLINK-1311 3.8 05:00:27 10° W 05:03:20 37° SSW 05:05:12 18° SE
STARLINK-1363 3.6 05:00:22 10° SW 05:03:23 37° SSE 05:05:06 20° ESE
STARLINK-1337 3.6 05:00:38 10° SW 05:03:40 37° SSE 05:05:23 20° ESE
STARLINK-1342 3.6 05:00:59 10° SW 05:04:01 37° SSE 05:05:42 21° ESE
STARLINK-1364 3.6 05:01:18 10° SW 05:04:20 37° SSE 05:06:01 21° ESE
STARLINK-1376 3.6 05:01:40 10° SW 05:04:42 37° SSE 05:06:22 21° ESE
STARLINK-1360 3.6 05:02:00 10° SW 05:05:02 37° SSE 05:06:40 21° ESE
STARLINK-1369 3.9 05:01:31 10° SW 05:05:02 40° SSE 05:07:13 20° ESE
STARLINK-1361 3.6 05:02:19 10° SW 05:05:21 37° SSE 05:06:59 21° ESE
STARLINK-1367 3.6 05:02:41 10° SW 05:05:42 37° SSE 05:07:16 22° ESE
COSMO-SKYMED 1 3.5 05:01:26 10° N 05:05:43 54° W 05:10:05 10° SSW
STARLINK-1366 3.6 05:03:03 10° SW 05:06:06 38° SSE 05:07:42 22° ESE
Cosmos 1943 Rocket 4.0 05:04:42 10° S 05:06:47 12° SSE 05:07:26 12° SE
CZ-4B R/B 3.6 05:01:37 10° SSE 05:06:48 41° E 05:12:01 10° NNE
Cosmos 2237 Rocket 3.1 05:02:41 10° NNE 05:07:30 30° ENE 05:11:03 16° SE
STARLINK-1372 3.9 05:04:19 10° SW 05:07:50 40° SSE 05:09:54 21° ESE
STARLINK-61 3.7 05:04:00 10° NW 05:07:54 58° NE 05:10:27 20° ESE
Cosmos 2369 Rocket 4.2 05:06:57 10° SSE 05:07:59 10° SSE 05:08:42 10° SE
Cosmos 1707 Rocket 3.7 05:04:24 10° S 05:08:49 52° ESE 05:13:07 10° NNE
Iridium 96 3.8 05:07:16 10° SSW 05:08:59 45° W 05:10:40 10° NNW
STARLINK-42 4.1 05:06:26 10° W 05:09:27 34° SSW 05:11:15 19° SE
STARLINK-1316 3.8 05:06:26 10° W 05:09:27 38° SSW 05:11:15 20° SE
STARLINK-1257 3.9 05:07:22 10° W 05:10:23 38° SSW 05:12:08 20° SE
SL-16 R/B 4.2 05:06:03 10° W 05:10:32 23° SW 05:15:02 10° S
Cosmos 1633 3.7 05:07:08 10° NNW 05:10:39 44° WSW 05:14:12 10° S
STARLINK-1378 3.9 05:07:21 10° SW 05:10:55 42° SSE 05:12:53 22° ESE
STARLINK-1304 3.6 05:06:54 10° NW 05:11:07 82° NNE 05:13:54 21° ESE
STARLINK-1256 3.9 05:08:15 10° W 05:11:17 38° SSW 05:13:00 21° SE
STARLINK-1213 3.9 05:09:10 10° W 05:12:11 37° SSW 05:13:52 21° SE
Meteor 2-20 Rocket 4.4 05:06:34 10° S 05:12:51 79° E 05:19:04 10° NNE
STARLINK-1263 3.9 05:10:05 10° W 05:13:06 37° SSW 05:14:44 21° SE
STARLINK-1329 3.8 05:09:38 10° SW 05:13:11 42° SSE 05:15:02 24° ESE
STARLINK-1286 3.6 05:09:10 10° WNW 05:13:24 87° NNE 05:16:08 22° ESE
STARLINK-1379 3.8 05:09:54 10° SW 05:13:28 42° SSE 05:15:16 24° ESE
Cosmos 2228 Rocket 4.2 05:09:14 10° SSW 05:13:42 50° W 05:18:03 10° NNW
STARLINK-1259 3.9 05:10:58 10° W 05:13:59 37° SSW 05:15:35 22° SE
STARLINK-1265 3.9 05:11:32 10° W 05:14:30 36° SSW 05:16:03 22° SE
STARLINK-1285 3.9 05:11:53 10° W 05:14:53 37° SSW 05:16:27 22° SE
STARLINK-1268 3.9 05:12:31 10° W 05:15:31 36° SSW 05:17:02 22° SE
STARLINK-1362 3.8 05:12:48 10° SW 05:16:26 44° SSE 05:18:12 25° ESE
STARLINK-1365 3.8 05:13:01 10° SW 05:16:40 45° SSE 05:18:26 25° ESE
STARLINK-1296 3.9 05:13:44 10° W 05:16:44 36° SSW 05:18:13 23° SE
STARLINK-1260 4.0 05:14:38 10° W 05:17:38 36° SSW 05:19:04 23° SE
STARLINK-69 4.4 05:14:17 10° NNW 05:17:46 32° NE 05:19:23 23° E
ATLAS CENTAUR R/B 3.7 05:15:48 10° S 05:17:58 13° SSE 05:18:35 13° SSE
Cosmos 1371 Rocket 4.0 05:12:59 10° SSW 05:18:25 63° ESE 05:23:45 10° NNE
STARLINK-1318 4.0 05:15:34 10° W 05:18:33 35° SSW 05:19:57 23° SSE
USA 116 4.5 05:14:01 10° NNE 05:18:52 83° WNW 05:24:13 10° SSW
STARLINK-1373 3.8 05:15:37 10° SW 05:19:14 45° SSE 05:20:51 27° ESE
STARLINK-21 4.5 05:15:49 10° NNW 05:19:16 31° NE 05:20:47 23° E
STARLINK-1275 4.0 05:16:26 10° W 05:19:25 35° SSW 05:20:46 24° SSE
STARLINK-1309 4.0 05:17:19 10° W 05:20:18 35° SSW 05:21:39 24° SSE
Cosmos 1934 Rocket 4.4 05:14:39 10° NNW 05:21:00 68° WSW 05:27:28 10° S
STARLINK-45 4.3 05:17:31 10° NNW 05:21:04 35° NE 05:22:35 25° E
STARLINK-1282 4.0 05:18:15 10° W 05:21:14 35° SSW 05:22:32 24° SSE
STARLINK-1390 3.7 05:18:17 10° SW 05:21:54 46° SSE 05:23:23 29° ESE
STARLINK-1313 4.1 05:19:22 10° W 05:22:19 33° SSW 05:23:32 24° SSE
STARLINK-62 3.8 05:19:30 10° W 05:22:35 40° SSW 05:23:57 26° SE
STARLINK-70 4.3 05:19:06 10° NNW 05:22:39 34° NE 05:24:06 26° E
Cosmos 1862 Rocket 4.1 05:18:30 10° S 05:22:44 36° ESE 05:26:56 10° NE
STARLINK-1279 4.1 05:20:21 10° W 05:23:17 33° SSW 05:24:28 24° SSE
SL-16 R/B 3.9 05:20:24 10° NE 05:22:27 14° ENE 05:22:27 14° ENE
STARLINK-1298 4.0 05:20:58 10° W 05:23:57 34° SSW 05:25:07 25° SSE
STARLINK-1029 3.6 05:20:51 10° W 05:23:58 46° SSW 05:25:14 28° SE
STARLINK-76 4.4 05:20:39 10° NNW 05:24:11 34° NE 05:25:32 26° E
STARLINK-71 4.3 05:20:36 10° NNW 05:24:22 37° NE 05:25:57 26° E
STARLINK-34 3.9 05:21:27 10° W 05:24:34 40° SSW 05:25:50 27° SSE
STARLINK-1293 4.0 05:21:55 10° W 05:24:53 34° SSW 05:26:02 25° SSE
Cosmos 158 Rocket 4.0 05:19:58 10° N 05:25:07 70° ENE 05:30:07 12° SSE
STARLINK-23 4.3 05:22:15 10° NNW 05:25:49 35° NE 05:27:07 27° E
STARLINK-1301 4.2 05:22:36 10° W 05:25:56 36° SSW 05:27:22 25° SSE
STARLINK-55 4.3 05:23:33 10° WSW 05:26:30 29° S 05:27:31 24° SSE
STARLINK-1255 4.1 05:23:44 10° W 05:26:41 33° SSW 05:27:44 26° SSE
Cosmos 405 3.4 05:23:28 10° SSW 05:27:02 64° W 05:30:32 10° N
STARLINK-1299 3.8 05:23:02 10° WNW 05:27:21 73° SSW 05:29:38 27° SE
STARLINK-32 4.3 05:23:51 10° NNW 05:27:25 36° NE 05:28:40 28° E
Cosmos 2333 Rocket 2.5 05:21:50 10° NNW 05:27:38 73° WSW 05:33:28 10° SSE
STARLINK-1306 3.7 05:23:32 10° WNW 05:27:49 78° SSW 05:30:01 28° SE
Okean O Rocket 1.6 05:23:59 10° SSE 05:28:25 61° E 05:32:50 10° N
Cosmos 2112 Rocket 4.0 05:23:19 10° NNW 05:28:38 75° ENE 05:33:30 12° SSE
H-2A R/B 2.7 05:25:18 12° SSE 05:28:53 63° E 05:32:46 10° N
STARLINK-40 4.2 05:25:31 10° NNW 05:29:07 37° NE 05:30:18 29° E
STARLINK-1307 4.2 05:25:57 10° W 05:29:18 37° SSW 05:30:38 27° SSE
STARLINK-44 4.2 05:27:04 10° NNW 05:30:41 38° NE 05:31:48 30° ENE
Cosmos 2278 Rocket 2.1 05:25:06 10° SSW 05:30:51 75° ESE 05:36:32 10° NNE
STARLINK-1281 3.7 05:26:49 10° WNW 05:31:01 79° SSW 05:33:02 30° SE
Cosmos 1605 Rocket 4.0 05:25:32 10° N 05:31:47 84° W 05:38:02 10° S
STARLINK-29 3.5 05:28:36 10° WSW 05:31:54 59° NNW 05:34:00 20° NE
STARLINK-1290 4.2 05:28:42 10° W 05:32:02 36° SSW 05:33:15 28° SSE
STARLINK-37 4.0 05:28:50 10° NNW 05:32:31 41° NE 05:33:38 33° E
STARLINK-1051 4.5 05:29:40 10° NNW 05:33:29 34° NE 05:34:37 29° ENE
STARLINK-36 4.1 05:30:18 10° NNW 05:33:56 40° NE 05:34:57 33° ENE
Sich 1 3.1 05:29:37 10° N 05:34:02 82° W 05:38:34 10° S
STARLINK-1297 4.2 05:31:22 10° W 05:34:43 36° SSW 05:35:48 28° SSE
STARLINK-26 4.4 05:32:11 10° WSW 05:35:22 30° S 05:36:13 27° SSE
STARLINK-68 3.9 05:32:04 10° NW 05:35:46 45° NE 05:36:47 36° E
STARLINK-1310 3.7 05:31:49 10° WNW 05:36:02 74° SSW 05:37:49 33° SE
SMAP 3.3 05:32:36 16° SSE 05:36:07 48° E 05:40:39 10° N
STARLINK-28 4.3 05:34:04 10° WSW 05:36:58 28° S 05:37:31 26° SSE
STARLINK-63 3.9 05:33:40 10° NW 05:37:22 44° NE 05:38:18 36° ENE
STARLINK-35 4.0 05:35:11 10° NNW 05:38:52 43° NE 05:39:42 37° ENE
STARLINK-41 4.2 05:36:08 10° WSW 05:39:01 29° S 05:39:29 27° S
STARLINK-51 3.9 05:36:51 10° NW 05:40:34 45° NE 05:41:22 39° ENE
STARLINK-1319 3.8 05:36:48 10° WNW 05:41:01 70° SSW 05:42:36 36° SE
Cosmos 1346 Rocket 4.4 05:37:55 10° NW 05:41:35 36° WSW 05:45:21 10° S
STARLINK-30 3.9 05:38:28 10° NW 05:42:12 46° NE 05:42:55 40° ENE
STARLINK-48 4.1 05:38:46 10° W 05:42:36 46° SSW 05:43:52 34° SSE
STARLINK-1028 4.2 05:39:28 10° NNW 05:43:24 40° NE 05:44:12 36° ENE
STARLINK-72 3.8 05:40:09 10° NW 05:43:54 48° NE 05:44:35 42° ENE
Cosmos 2360 Rocket 4.0 05:40:21 10° WNW 05:45:04 26° SW 05:49:50 10° S
STARLINK-1277 3.8 05:41:47 10° WNW 05:45:59 66° SSW 05:47:22 40° SE
Cosmos 2056 Rocket 3.5 05:41:28 10° SSW 05:46:54 90° WNW 05:52:11 10° NNE
STARLINK-59 3.7 05:43:26 10° NW 05:47:13 53° NE 05:47:48 47° ENE
STARLINK-1021 4.1 05:44:22 10° NNW 05:48:21 44° NE 05:48:58 40° ENE
STARLINK-56 3.7 05:45:00 10° NW 05:48:47 52° NE 05:49:17 48° ENE
ATLAS 2AS CENTAUR R/B 3.3 05:43:19 10° SSW 05:49:16 36° SE 05:51:07 31° ESE
STARLINK-73 3.6 05:46:38 10° NW 05:50:25 53° NE 05:50:52 50° ENE
STARLINK-1276 3.9 05:46:48 10° WNW 05:50:59 63° SSW 05:52:09 43° SE
NOAA 6 4.3 05:46:26 10° S 05:51:37 68° WSW 05:56:43 10° NNW
STARLINK-1291 4.3 05:48:35 10° WSW 05:51:41 31° S 05:51:51 31° S
STARLINK-38 3.6 05:48:16 10° NW 05:52:04 55° NE 05:52:27 52° ENE
STARLINK-1317 4.3 05:49:33 10° WSW 05:52:51 32° S 05:53:10 32° S
STARLINK-1019 4.0 05:49:17 10° NW 05:53:19 47° NE 05:53:46 45° ENE
STARLINK-1264 4.3 05:50:30 10° WSW 05:53:35 31° S 05:53:41 30° S
STARLINK-24 3.6 05:49:36 10° NW 05:53:37 61° NE 05:54:10 54° ENE
CZ-2C R/B 3.2 05:53:40 36° ESE 05:53:40 36° ESE 05:58:35 10° S
STARLINK-65 3.5 05:49:54 10° NW 05:53:43 57° NE 05:54:03 54° ENE
STARLINK-33 4.5 05:51:52 10° WSW 05:54:33 27° S 05:54:33 27° S
STARLINK-1267 4.4 05:52:26 10° WSW 05:55:33 31° S 05:55:35 31° S
STARLINK-53 3.5 05:51:47 10° NW 05:55:39 61° NE 05:55:57 58° ENE
STARLINK-1305 3.9 05:51:49 10° WNW 05:55:58 59° SSW 05:56:57 46° SSE
STARLINK-25 3.5 05:53:22 10° NW 05:57:04 57° NE 05:57:08 57° NE
STARLINK-1272 4.4 05:54:20 10° WSW 05:57:24 30° S 05:57:24 30° S
STARLINK-1012 3.9 05:54:12 10° NW 05:58:16 51° NE 05:58:32 50° NE
STARLINK-64 4.0 05:55:08 10° W 05:58:36 42° SSW 05:58:52 41° S
Cosmos 1818 3.4 05:53:12 10° NNW 05:58:36 76° ENE 06:00:42 38° SE
STARLINK-1207 4.4 05:56:17 10° WSW 05:59:15 30° SSW 05:59:15 30° SSW
STARLINK-1278 4.2 05:55:34 10° W 05:59:49 53° SSW 06:00:43 44° SSE
Cosmos 1666 Rocket 4.0 05:56:12 10° NNW 06:00:34 63° W 06:04:56 10° S
STARLINK-1262 4.0 05:56:50 10° W 06:00:59 57° SSW 06:01:44 48° SSE
STARLINK-1266 4.5 05:58:16 10° WSW 06:01:09 30° SSW 06:01:09 30° SSW
STARLINK-1280 4.2 05:57:25 10° W 06:01:40 52° SSW 06:02:29 45° SSE
Shenzhou-11 Module 3.8 05:59:47 10° WNW 06:01:12 23° NW 06:01:12 23° NW
YAOGAN 6 2.7 06:03:03 61° NNE 06:03:03 61° NNE 06:06:17 10° N
Cosmos 1633 Rocket 3.3 05:58:13 10° NNW 06:02:40 73° W 06:06:32 14° S
BREEZE-M DEB (TANK) 4.4 06:00:06 10° WSW 06:04:22 59° NNW 06:21:00 10° NE
SeaSat 1 4.5 06:07:27 14° S 06:07:27 14° S 06:08:38 10° S
STARLINK-1300 4.0 06:01:48 10° W 06:05:56 54° SSW 06:06:30 50° S
Centaur D AC-29 4.1 06:03:19 10° NW 06:06:03 12° NNW 06:08:03 10° N
Meteor 1-25 Rocket 4.2 06:01:05 10° N 06:06:29 53° E 06:07:53 43° SE
Meteor 1-18 Rocket 4.4 06:02:31 10° S 06:08:02 47° ESE 06:08:02 47° ESE
STARLINK-1026 3.7 06:04:05 10° NW 06:08:07 60° NNE 06:08:07 60° NNE
Cosmos 2219 Rocket 3.3 06:02:55 10° WNW 06:08:17 41° SW 06:13:01 13° SSE
Cosmos 2100 Rocket 3.9 06:02:16 10° N 06:08:30 78° E 06:14:45 10° S
Cosmos 1680 Rocket 4.5 06:04:28 10° NW 06:09:34 46° WSW 06:13:59 14° S
STARLINK-50 3.5 06:05:42 10° NW 06:09:41 73° NNE 06:09:41 73° NNE
STARLINK-1338 3.6 06:06:58 10° WSW 06:10:05 61° SW 06:10:05 61° SW
STARLINK-1295 4.1 06:06:51 10° W 06:10:59 52° SSW 06:11:18 50° S
FALCON 9 DEB 4.0 06:09:27 10° WSW 06:12:52 47° NW 06:12:55 47° NW
STARLINK-1013 3.8 06:08:59 10° NW 06:12:52 62° N 06:12:52 62° N
STARLINK-1287 4.2 06:11:50 10° W 06:15:57 50° SSW 06:16:03 49° SSW
STARLINK-1371 3.9 06:12:26 10° WSW 06:15:21 54° WSW 06:15:21 54° WSW
Cosmos 1452 Rocket 3.4 06:12:03 10° SSW 06:17:22 63° ESE 06:17:29 63° ESE
STARLINK-1009 3.8 06:13:56 10° NW 06:17:39 63° N 06:17:39 63° N
STARLINK-1341 4.0 06:15:11 10° WSW 06:18:03 51° WSW 06:18:03 51° WSW
Cosmos 1420 Rocket 4.0 06:15:19 10° SSW 06:20:45 87° WNW 06:24:07 23° NNE
STARLINK-1374 4.2 06:17:45 10° WSW 06:20:30 47° WSW 06:20:30 47° WSW
STARLINK-1015 4.0 06:18:54 10° NW 06:22:26 60° NNW 06:22:26 60° NNW
Cosmos 1980 3.9 06:17:25 10° NNW 06:23:07 72° WSW 06:25:38 34° SSE
CZ-4C R/B 4.1 06:19:34 10° SW 06:23:52 18° S 06:24:38 17° SSE
STARLINK-1339 4.3 06:20:30 10° WSW 06:23:10 45° WSW 06:23:10 45° WSW
Envisat 3.2 06:21:19 18° S 06:25:13 69° WSW 06:30:18 10° NNW
Cosmos 2061 Rocket 3.9 06:19:04 10° N 06:25:17 68° E 06:28:12 33° SSE
Cosmos 1238 Rocket 4.0 06:21:27 10° NNW 06:25:42 43° W 06:27:18 28° SSW
STARLINK-1302 4.4 06:21:53 10° W 06:25:38 45° SSW 06:25:38 45° SSW
STARLINK-1377 4.5 06:22:42 10° WSW 06:25:11 41° WSW 06:25:11 41° WSW
STARLINK-1016 4.2 06:23:52 10° NW 06:27:13 56° NW 06:27:13 56° NW
Feng Yun 1-1 Rocket 4.0 06:27:58 56° SSE 06:29:12 82° ENE 06:34:41 10° NNW
Meteor 1-20 Rocket 4.1 06:24:29 10° N 06:30:15 84° E 06:32:30 40° SSE
Cosmos 2297 3.6 06:25:14 10° SSW 06:30:33 65° SE 06:30:33 65° SE
NOSS 0 Rocket 4.4 06:25:49 10° NW 06:31:59 58° SW 06:35:22 28° SSE
Helios 1A Rocket 3.6 06:33:10 52° NW 06:33:10 52° NW 06:36:26 10° NNW
STARLINK-1008 4.4 06:28:50 10° WNW 06:32:01 51° NW 06:32:01 51° NW
Cosmos 2016 Rocket 3.9 06:29:31 10° N 06:35:49 80° E 06:39:14 30° SSE
USA 234 4.1 06:34:22 34° SSE 06:36:17 41° SSW 06:42:22 10° WSW
Cosmos 1864 Rocket 4.4 06:30:35 10° N 06:36:18 67° ENE 06:36:18 67° ENE
Cosmos 2173 Rocket 4.2 06:31:27 10° NNW 06:37:43 71° W 06:43:59 10° S
COSMOS 2428 4.4 06:34:41 10° WNW 06:39:39 29° SW 06:43:22 16° S
DMSP B5D2-2 4.2 06:42:43 69° SSW 06:42:43 69° SSW 06:47:23 10° SSW
Lacrosse 5 rocket 3.0 06:38:06 10° NW 06:40:19 29° NNW 06:40:19 29° NNW
COSMOS 2455 4.4 06:39:11 10° SSW 06:42:03 22° S 06:42:03 22° S
Cosmos 1816 Rocket 4.3 06:38:18 10° S 06:44:45 81° E 06:45:22 72° NE
Cosmos 1459 Rocket 4.4 06:38:43 10° NNW 06:44:54 63° WSW 06:51:16 10° S
ATLAS 5 CENTAUR R/B 2.6 06:37:52 10° NW 06:45:03 80° SW 06:46:25 60° SSE
Cosmos 371 Rocket 4.0 06:43:58 10° SSW 06:47:37 48° SW 06:47:37 48° SW
Cosmos 2237 Rocket 3.0 06:45:50 10° NW 06:51:19 49° WSW 06:52:55 38° SSW
Cosmos 1943 Rocket 3.7 06:46:37 10° SSW 06:48:59 24° S 06:48:59 24° S
Cosmos 2369 Rocket 3.9 06:48:27 10° SSW 06:50:30 21° S 06:50:30 21° S
ATLAS CENTAUR R/B 4.0 06:53:39 10° SSW 06:54:47 16° SSW 06:54:47 16° SSW
BREEZE-M DEB (TANK) 4.4 06:46:58 10° NW 06:59:38 57° N 06:59:38 57° N
Okean O Rocket 4.3 07:01:23 10° SSW 07:04:19 17° WSW 07:07:15 10° WNW
SL-16 R/B 3.2 07:01:02 10° NNW 07:04:24 37° NNW 07:04:24 37° NNW
BREEZE M DEB (TANK) 4.0 06:52:41 10° WSW 07:12:52 80° NNW 07:13:12 78° N
Cosmos 1725 Rocket 4.3 07:07:56 10° NNW 07:13:48 66° WNW 07:13:48 66° WNW
NOSS 3-4 (A) 3.9 07:07:10 10° SW 07:13:17 65° SSW 07:13:17 65° SSW
NOSS 3-4 (C) 3.9 07:07:15 10° SW 07:13:20 65° SSW 07:13:20 65° SSW
CZ-2C R/B 4.2 07:35:11 32° WSW 07:35:11 32° WSW 07:38:56 10° SSW
ATLAS 2AS CENTAUR R/B 3.4 07:34:01 10° SW 07:38:34 47° WSW 07:38:34 47° WSW
